QPF
0.00 0.00 0.00 0.00 0.00 0.00 0.00 0.00 0.00 0.00 0.00 0.00 0.00 0.00 0.00 0.00 0.00 0.00 0.00 0.00 0.00 0.00 0.00 0.00 0.00 0.00 0.00 0.00 0.00 0.00 0.00 0.00 0.00 0.00 0.00 0.00 0.00 0.00 0.00 0.00 0.00 0.00 0.00 0.00 0.00 0.00 0.00 0.00 0.00
0.00 0.00 0.00 0.00 0.00 0.00 0.00 0.00 0.00 0.00 0.00 0.00 0.00 0.00 0.00 0.00 0.00 0.00 0.00 0.00 0.00 0.00 0.00 0.00 0.00 0.00 0.00 0.00 0.00 0.00 0.00 0.00 0.00 0.00 0.00 0.00 0.00 0.00 0.00 0.00 0.00 0.00 0.00 0.00 0.00 0.00 0.00 0.00 0.00
0.00 0.00 0.00 0.00 0.00 0.00 0.00 0.00 0.00 0.00 0.00 0.00 0.00 0.00 0.00 0.00 0.00 0.00 0.00 0.00 0.00 0.00 0.00 0.00 0.00 0.00 0.00 0.00 0.00 0.00 0.00 0.00 0.00 0.00 0.00 0.00 0.00 0.00 0.00 0.00 0.00 0.00 0.00 0.00 0.00 0.00 0.00 0.00 0.00
0.00 0.00 0.00 0.00 0.00 0.00 0.00 0.00 0.00 0.00 0.00 0.00 0.00 0.00 0.00 0.00 0.00 0.00 0.00 0.00 0.00 0.00 0.00 0.00 0.00 0.00 0.00 0.00 0.00 0.00 0.00 0.00 0.00 0.00 0.00 0.00 0.00 0.00 0.00 0.00 0.00 0.00 0.00 0.00 0.00 0.00 0.00 0.00 0.00
0.00 0.00 0.00 0.00 0.00 0.00 0.00 0.00 0.00 0.00 0.00 0.00 0.00 0.00 0.00 0.00 0.00 0.00 0.00 0.00 0.00 0.00 0.00 0.00 0.00 0.00 0.00 0.00 0.00 0.00 0.00 0.00 0.00 0.00 0.00 0.00 0.00 0.00 0.00 0.00 0.00 0.00 0.00 0.00 0.00 0.00 0.00 0.00 0.00
0.00 0.00 0.00 0.00 0.00 0.00 0.00 0.00 0.00 0.00 0.00 0.00 0.00 0.00 0.00 0.00 0.00 0.00 0.00 0.00 0.00 0.00 0.00 0.00 0.00 0.00 0.00 0.00 0.00 0.00 0.00 0.00 0.00 0.00 0.00 0.00 0.00 0.00 0.00 0.00 0.00 0.00 0.00 0.00 0.00 0.00 0.00 0.00 0.00
0.00 0.00 0.00 0.00 0.00 0.00 0.00 0.00 0.00 0.00 0.00 0.00 0.00 0.00 0.00 0.00 0.00 0.00 0.00 0.00 0.00 0.00 0.00 0.00 0.00 0.00 0.00 0.00 0.00 0.00 0.00 0.00 0.00 0.00 0.00 0.00 0.00 0.00 0.00 0.00 0.00 0.00 0.00 0.00 0.00 0.00 0.00 0.00 0.00
0.00 0.00 0.00 0.00 0.00 0.00 0.00 0.00 0.00 0.00 0.00 0.00 0.00 0.00 0.00 0.00 0.00 0.00 0.00 0.00 0.00 0.00 0.00 0.00 0.00 0.00 0.00 0.00 0.00 0.00 0.00 0.00 0.00 0.00 0.00 0.00 0.00 0.00 0.00 0.00 0.00 0.00 0.00 0.00 0.00 0.00 0.00 0.00 0.00
0.00 0.00 0.00 0.00 0.00 0.00 0.00 0.00 0.00 0.00 0.00 0.00 0.00 0.00 0.00 0.00 0.01 0.00 0.00 0.00 0.00 0.00 0.00 0.00 0.00 0.00 0.00 0.00 0.00 0.00 0.00 0.00 0.00 0.00 0.00 0.00 0.00 0.00 0.00 0.00 0.00 0.00 0.00 0.00 0.00 0.00 0.00 0.00 0.00
0.00 0.00 0.00 0.00 0.00 0.00 0.00 0.00 0.00 0.00 0.00 0.00 0.00 0.00 0.00 0.00 0.09 0.16 0.07 0.02 0.01 0.00 0.00 0.00 0.00 0.00 0.00 0.00 0.00 0.00 0.00 0.00 0.00 0.00 0.00 0.00 0.00 0.00 0.00 0.00 0.00 0.00 0.00 0.00 0.00 0.00 0.00 0.00 0.00
0.00 0.00 0.00 0.00 0.00 0.00 0.00 0.00 0.00 0.00 0.00 0.00 0.00 0.00 0.00 0.00 0.00 0.06 0.17 0.15 0.05 0.00 0.00 0.00 0.00 0.00 0.00 0.00 0.00 0.00 0.00 0.00 0.00 0.00 0.00 0.00 0.00 0.00 0.00 0.00 0.00 0.00 0.00 0.00 0.00 0.00 0.00 0.00 0.00
0.00 0.00 0.00 0.00 0.00 0.00 0.00 0.00 0.00 0.00 0.00 0.00 0.00 0.00 0.00 0.00 0.00 0.00 0.01 0.05 0.13 0.04 0.03 0.01 0.00 0.00 0.00 0.00 0.00 0.00 0.00 0.00 0.00 0.00 0.00 0.00 0.00 0.00 0.00 0.00 0.00 0.00 0.00 0.00 0.00 0.00 0.00 0.00 0.00
0.00 0.00 0.00 0.00 0.00 0.00 0.00 0.00 0.00 0.00 0.00 0.00 0.00 0.00 0.00 0.00 0.00 0.00 0.00 0.00 0.01 0.04 0.03 0.02 0.01 0.00 0.00 0.00 0.00 0.00 0.00 0.00 0.00 0.00 0.00 0.00 0.00 0.00 0.00 0.00 0.00 0.00 0.00 0.00 0.00 0.00 0.00 0.00 0.00
0.00 0.00 0.00 0.00 0.00 0.00 0.00 0.00 0.00 0.00 0.00 0.00 0.00 0.00 0.00 0.00 0.00 0.00 0.00 0.00 0.00 0.00 0.01 0.03 0.02 0.01 0.00 0.01 0.00 0.00 0.00 0.00 0.00 0.00 0.00 0.00 0.00 0.00 0.00 0.00 0.00 0.00 0.00 0.00 0.00 0.00 0.00 0.00 0.00
0.00 0.00 0.00 0.00 0.00 0.00 0.00 0.00 0.00 0.00 0.00 0.00 0.00 0.00 0.00 0.00 0.00 0.00 0.00 0.00 0.00 0.00 0.00 0.00 0.00 0.00 0.01 0.04 0.04 0.03 0.02 0.00 0.00 0.00 0.00 0.00 0.00 0.00 0.00 0.00 0.00 0.00 0.00 0.00 0.00 0.00 0.00 0.00 0.00
0.00 0.00 0.00 0.00 0.00 0.00 0.00 0.00 0.00 0.00 0.00 0.00 0.00 0.00 0.00 0.00 0.00 0.00 0.00 0.00 0.00 0.00 0.00 0.00 0.00 0.00 0.00 0.03 0.07 0.07 0.04 0.01 0.00 0.00 0.00 0.00 0.00 0.00 0.00 0.00 0.00 0.00 0.00 0.00 0.00 0.00 0.00 0.00 0.00
0.00 0.00 0.00 0.00 0.00 0.00 0.00 0.00 0.00 0.00 0.00 0.00 0.00 0.00 0.00 0.00 0.00 0.00 0.00 0.00 0.00 0.00 0.00 0.00 0.00 0.00 0.00 0.01 0.03 0.10 0.09 0.02 0.00 0.00 0.00 0.00 0.00 0.00 0.00 0.00 0.00 0.00 0.00 0.00 0.00 0.00 0.00 0.00 0.00
0.00 0.00 0.00 0.00 0.00 0.00 0.00 0.00 0.00 0.00 0.00 0.00 0.00 0.00 0.00 0.00 0.00 0.00 0.00 0.00 0.00 0.00 0.00 0.00 0.00 0.00 0.00 0.00 0.04 0.06 0.11 0.05 0.01 0.00 0.00 0.00 0.00 0.00 0.00 0.00 0.00 0.00 0.00 0.00 0.00 0.00 0.00 0.00 0.00
0.00 0.00 0.00 0.00 0.00 0.00 0.00 0.00 0.00 0.00 0.00 0.00 0.00 0.00 0.00 0.00 0.00 0.00 0.00 0.00 0.00 0.00 0.00 0.00 0.00 0.00 0.01 0.00 0.01 0.05 0.11 0.10 0.04 0.02 0.00 0.00 0.00 0.00 0.00 0.00 0.00 0.00 0.00 0.00 0.00 0.00 0.00 0.00 0.00
0.00 0.00 0.00 0.00 0.00 0.00 0.00 0.00 0.00 0.00 0.00 0.00 0.00 0.00 0.00 0.00 0.00 0.00 0.00 0.00 0.00 0.00 0.00 0.00 0.00 0.00 0.00 0.02 0.02 0.07 0.14 0.14 0.08 0.03 0.01 0.00 0.00 0.00 0.00 0.00 0.00 0.00 0.00 0.00 0.00 0.00 0.00 0.00 0.00
0.00 0.00 0.00 0.00 0.00 0.00 0.00 0.00 0.00 0.00 0.00 0.00 0.00 0.00 0.00 0.00 0.00 0.00 0.00 0.00 0.00 0.00 0.00 0.00 0.00 0.01 0.00 0.01 0.04 0.07 0.11 0.26 0.11 0.01 0.00 0.00 0.00 0.00 0.00 0.00 0.00 0.00 0.00 0.00 0.00 0.00 0.00 0.00 0.00
0.00 0.00 0.00 0.00 0.00 0.00 0.00 0.00 0.00 0.00 0.00 0.00 0.00 0.00 0.00 0.00 0.00 0.00 0.00 0.00 0.00 0.00 0.00 0.00 0.00 0.01 0.00 0.00 0.01 0.03 0.03 0.06 0.06 0.02 0.02 0.01 0.00 0.00 0.00 0.00 0.00 0.00 0.00 0.00 0.00 0.00 0.00 0.00 0.00
0.00 0.00 0.00 0.00 0.00 0.00 0.00 0.00 0.00 0.00 0.00 0.00 0.00 0.00 0.00 0.00 0.00 0.00 0.00 0.00 0.00 0.00 0.00 0.00 0.00 0.02 0.01 0.01 0.00 0.00 0.00 0.00 0.01 0.00 0.01 0.02 0.01 0.01 0.00 0.00 0.00 0.00 0.00 0.00 0.00 0.00 0.00 0.00 0.00
0.00 0.00 0.00 0.00 0.00 0.00 0.00 0.00 0.00 0.00 0.00 0.00 0.00 0.00 0.00 0.00 0.00 0.00 0.00 0.00 0.00 0.00 0.00 0.00 0.00 0.02 0.04 0.01 0.01 0.00 0.00 0.00 0.00 0.01 0.02 0.04 0.04 0.04 0.00 0.00 0.00 0.00 0.00 0.00 0.00 0.00 0.00 0.00 0.00
0.00 0.00 0.00 0.00 0.00 0.00 0.00 0.00 0.00 0.00 0.00 0.00 0.00 0.00 0.00 0.00 0.00 0.00 0.00 0.00 0.00 0.00 0.00 0.00 0.00 0.00 0.01 0.03 0.02 0.00 0.00 0.00 0.00 0.00 0.02 0.10 0.05 0.05 0.01 0.00 0.00 0.00 0.00 0.00 0.00 0.00 0.00 0.00 0.00
0.00 0.00 0.00 0.01 0.00 0.00 0.00 0.00 0.00 0.00 0.00 0.00 0.00 0.00 0.00 0.00 0.00 0.00 0.00 0.00 0.00 0.00 0.00 0.00 0.00 0.00 0.00 0.01 0.01 0.00 0.00 0.00 0.00 0.00 0.00 0.01 0.13 0.14 0.04 0.00 0.00 0.00 0.00 0.00 0.00 0.00 0.00 0.00 0.00
0.00 0.00 0.00 0.00 0.00 0.00 0.00 0.00 0.00 0.00 0.00 0.00 0.00 0.00 0.00 0.00 0.00 0.00 0.00 0.00 0.00 0.00 0.00 0.00 0.00 0.00 0.01 0.00 0.01 0.02 0.02 0.01 0.00 0.02 0.02 0.04 0.09 0.13 0.05 0.00 0.00 0.00 0.00 0.00 0.00 0.00 0.00 0.00 0.00
0.00 0.00 0.00 0.00 0.02 0.00 0.00 0.00 0.00 0.00 0.00 0.00 0.00 0.00 0.00 0.00 0.00 0.00 0.00 0.00 0.00 0.00 0.00 0.00 0.00 0.00 0.01 0.00 0.02 0.04 0.04 0.04 0.03 0.05 0.03 0.05 0.10 0.13 0.06 0.03 0.03 0.01 0.02 0.02 0.01 0.00 0.00 0.00 0.00
0.00 0.00 0.01 0.04 0.04 0.06 0.03 0.00 0.00 0.00 0.00 0.00 0.00 0.00 0.00 0.00 0.00 0.00 0.00 0.00 0.00 0.00 0.00 0.00 0.00 0.00 0.01 0.02 0.04 0.08 0.04 0.06 0.04 0.05 0.05 0.07 0.10 0.13 0.13 0.10 0.04 0.02 0.03 0.02 0.03 0.04 0.02 0.00 0.00
0.00 0.00 0.03 0.08 0.05 0.07 0.07 0.03 0.00 0.00 0.00 0.00 0.00 0.00 0.00 0.00 0.00 0.00 0.00 0.00 0.00 0.00 0.00 0.00 0.00 0.00 0.01 0.04 0.06 0.09 0.06 0.10 0.07 0.06 0.05 0.15 0.21 0.20 0.21 0.17 0.08 0.03 0.04 0.07 0.09 0.05 0.01 0.00 0.00
MSLP
1009.31 1008.78 1008.65 1008.86 1010.03 1010.13 1009.28 1007.50 1006.45 1004.99 1004.49 1003.74 1003.72 1003.85 1003.13 1003.04 1003.84 1003.41 1001.78 1001.63 1002.36 1003.47 1004.64 1005.52 1005.99 1006.15 1006.68 1006.94 1007.26 1007.72 1007.99 1008.42 1008.83 1009.28 1009.65 1009.91 1010.25 1010.55 1010.71 1010.90 1011.17 1011.38 1011.52 1011.70 1011.87 1011.96 1011.99 1012.16 1012.38
1009.37 1008.84 1008.96 1009.74 1010.63 1010.38 1008.89 1006.85 1006.29 1004.97 1004.45 1003.38 1002.23 1002.44 1002.76 1001.80 1001.85 1002.14 1002.23 1002.41 1002.51 1003.04 1004.32 1005.34 1005.76 1006.16 1006.62 1006.99 1007.26 1007.60 1008.00 1008.48 1008.85 1009.34 1009.72 1009.84 1010.23 1010.56 1010.83 1011.02 1011.26 1011.53 1011.68 1011.77 1011.91 1012.06 1012.23 1012.40 1012.58
1009.34 1009.28 1010.07 1010.74 1010.93 1010.03 1008.51 1006.65 1005.84 1004.96 1004.11 1004.03 1003.01 1002.10 1001.98 1001.40 1000.98 1001.37 1001.44 1002.17 1002.72 1003.64 1004.28 1005.08 1005.57 1006.10 1006.56 1006.97 1007.38 1007.69 1008.05 1008.48 1008.91 1009.39 1009.76 1009.89 1010.21 1010.55 1010.89 1011.11 1011.30 1011.51 1011.74 1011.94 1012.05 1012.11 1012.33 1012.60 1012.82
1009.73 1010.20 1011.37 1011.41 1010.74 1009.30 1007.77 1006.67 1006.05 1005.43 1003.93 1004.30 1003.68 1002.51 1001.33 1000.60 1000.84 1000.64 1001.34 1001.81 1002.71 1003.59 1004.23 1004.97 1005.58 1006.18 1006.74 1006.97 1007.45 1007.79 1008.16 1008.56 1008.95 1009.49 1009.90 1010.06 1010.23 1010.60 1010.90 1011.13 1011.40 1011.52 1011.71 1011.97 1012.16 1012.24 1012.45 1012.68 1012.89
1010.33 1011.40 1012.25 1012.13 1010.71 1009.29 1007.97 1007.12 1006.55 1006.12 1005.25 1004.42 1004.22 1003.15 1001.55 1000.86 1000.91 1001.13 1002.05 1002.59 1002.58 1003.46 1004.19 1004.98 1005.42 1006.04 1006.71 1007.11 1007.45 1007.91 1008.30 1008.77 1009.15 1009.59 1010.02 1010.13 1010.31 1010.70 1010.93 1011.20 1011.40 1011.64 1011.80 1011.94 1012.16 1012.44 1012.61 1012.76 1012.96
1011.42 1012.40 1013.12 1012.55 1011.08 1009.65 1008.43 1007.36 1006.74 1006.32 1005.95 1004.98 1004.32 1003.86 1002.32 1001.82 1001.70 1002.35 1001.87 1002.58 1003.20 1003.56 1004.29 1004.93 1005.59 1006.12 1006.70 1007.16 1007.52 1008.07 1008.47 1008.90 1009.30 1009.76 1010.21 1010.35 1010.50 1010.84 1011.09 1011.27 1011.53 1011.72 1011.97 1012.11 1012.31 1012.44 1012.65 1012.84 1012.98
1011.75 1012.86 1012.91 1012.31 1011.34 1010.01 1008.59 1007.56 1007.12 1006.56 1006.16 1005.58 1004.89 1004.36 1003.77 1003.07 1003.38 1003.45 1003.75 1004.07 1004.01 1004.00 1004.40 1005.08 1005.39 1006.32 1007.10 1007.32 1007.60 1008.04 1008.57 1008.99 1009.41 1009.80 1010.23 1010.41 1010.67 1011.03 1011.23 1011.38 1011.57 1011.81 1012.05 1012.20 1012.31 1012.42 1012.62 1012.77 1012.88
1011.78 1012.60 1012.82 1012.02 1011.19 1009.95 1008.51 1008.07 1007.34 1006.80 1006.05 1005.57 1005.16 1005.09 1004.73 1003.85 1003.43 1004.45 1004.35 1004.99 1005.29 1005.12 1005.07 1005.01 1005.61 1005.90 1006.83 1007.43 1007.66 1008.08 1008.54 1009.00 1009.56 1010.00 1010.32 1010.55 1010.70 1011.06 1011.29 1011.49 1011.67 1011.85 1012.09 1012.28 1012.27 1012.39 1012.54 1012.70 1012.79
1011.49 1012.71 1013.03 1012.07 1011.15 1009.93 1008.71 1008.38 1007.44 1006.83 1006.45 1005.99 1005.46 1005.44 1005.12 1004.47 1004.24 1004.75 1005.50 1005.81 1005.91 1005.94 1005.69 1005.64 1005.55 1006.12 1006.73 1007.61 1007.94 1008.22 1008.55 1009.02 1009.50 1010.06 1010.46 1010.82 1011.07 1011.27 1011.37 1011.56 1011.71 1011.85 1012.05 1012.29 1012.30 1012.31 1012.45 1012.67 1012.77
1011.87 1012.73 1012.44 1011.55 1010.75 1009.99 1009.06 1008.61 1007.79 1007.40 1006.78 1006.27 1005.52 1005.39 1005.10 1004.63 1004.84 1005.49 1006.12 1006.49 1006.93 1006.19 1006.16 1005.90 1005.92 1006.12 1006.76 1007.49 1008.29 1008.66 1008.89 1009.20 1009.65 1010.03 1010.45 1010.78 1011.11 1011.31 1011.39 1011.56 1011.70 1011.81 1011.95 1012.19 1012.32 1012.24 1012.25 1012.55 1012.84
1011.75 1012.08 1011.60 1010.99 1010.43 1010.13 1009.57 1008.56 1007.81 1007.26 1006.95 1006.50 1006.03 1005.00 1005.46 1005.29 1005.20 1005.18 1005.51 1006.15 1006.67 1006.91 1007.50 1006.81 1006.55 1005.89 1006.32 1007.14 1007.92 1008.70 1008.92 1009.33 1009.64 1009.97 1010.39 1010.79 1011.20 1011.40 1011.44 1011.53 1011.67 1011.80 1011.87 1012.14 1012.26 1012.38 1012.40 1012.57 1012.69
1011.82 1011.50 1011.42 1011.13 1010.46 1010.28 1009.78 1008.80 1008.03 1007.38 1006.98 1006.45 1006.04 1005.51 1005.19 1005.79 1005.82 1005.60 1005.32 1004.98 1005.29 1006.04 1006.54 1007.53 1007.53 1006.67 1006.19 1006.23 1007.10 1007.99 1008.68 1009.09 1009.46 1009.86 1010.17 1010.73 1011.11 1011.29 1011.34 1011.39 1011.46 1011.70 1011.92 1012.15 1012.24 1012.36 1012.57 1012.58 1012.48
1011.75 1011.62 1011.34 1010.94 1010.72 1010.20 1009.49 1008.99 1008.23 1007.43 1006.67 1006.26 1005.95 1005.64 1004.98 1004.86 1005.48 1005.36 1005.10 1004.58 1004.46 1004.97 1005.50 1006.11 1007.18 1007.30 1006.51 1006.14 1006.42 1007.16 1007.56 1008.46 1008.89 1009.54 1009.96 1010.32 1010.88 1011.18 1011.25 1011.40 1011.44 1011.61 1011.89 1012.23 1012.39 1012.36 1012.48 1012.58 1012.50
1011.96 1011.92 1011.51 1010.95 1010.46 1009.88 1009.33 1008.64 1008.30 1007.30 1006.36 1006.05 1005.94 1005.69 1005.15 1004.63 1004.21 1005.11 1004.85 1004.62 1004.21 1004.11 1004.67 1005.21 1006.07 1006.81 1007.16 1006.85 1006.05 1006.19 1006.75 1007.39 1008.31 1008.83 1009.44 1009.81 1010.33 1010.86 1011.11 1011.31 1011.43 1011.66 1011.76 1012.07 1012.23 1012.52 1012.64 1012.66 1012.66
1012.05 1012.03 1011.43 1010.59 1009.96 1009.52 1008.97 1008.44 1008.20 1007.22 1006.67 1006.28 1005.56 1005.20 1005.08 1004.64 1004.37 1003.72 1004.48 1004.27 1003.85 1003.76 1003.73 1004.38 1004.93 1005.83 1006.52 1007.23 1007.51 1006.88 1007.21 1007.35 1007.50 1008.03 1008.86 1009.39 1009.95 1010.48 1010.80 1011.07 1011.20 1011.40 1011.60 1011.92 1012.23 1012.39 1012.54 1012.86 1012.84
1012.78 1012.57 1012.26 1010.84 1010.15 1009.28 1009.12 1008.23 1007.55 1006.88 1006.81 1006.44 1005.64 1005.09 1004.81 1004.50 1004.15 1003.75 1003.02 1003.87 1003.51 1003.09 1003.31 1003.31 1003.78 1004.65 1005.60 1006.56 1007.31 1007.51 1007.34 1007.50 1007.50 1007.46 1008.00 1008.72 1009.25 1009.93 1010.55 1010.69 1010.80 1010.89 1011.24 1011.66 1012.08 1012.36 1012.58 1012.84 1013.01
1013.88 1013.66 1012.64 1011.18 1010.15 1009.58 1009.24 1007.96 1007.37 1006.80 1006.71 1006.42 1005.96 1005.33 1004.71 1004.27 1003.85 1003.18 1002.91 1002.72 1002.92 1002.88 1002.70 1002.88 1003.19 1003.84 1004.65 1005.55 1006.53 1007.29 1007.66 1007.54 1007.47 1007.54 1007.86 1007.93 1008.57 1009.33 1009.87 1010.32 1010.42 1010.70 1011.27 1011.59 1011.84 1012.11 1012.49 1012.87 1013.24
1014.05 1013.77 1012.84 1011.61 1010.20 1009.68 1009.02 1007.79 1007.29 1006.78 1006.56 1006.32 1005.97 1005.28 1004.65 1004.03 1003.78 1003.10 1002.74 1002.05 1002.45 1002.18 1001.96 1002.23 1002.58 1003.23 1004.03 1004.91 1005.93 1006.88 1007.33 1007.46 1007.67 1007.77 1007.74 1007.89 1008.12 1008.68 1009.52 1009.89 1010.19 1010.47 1011.14 1011.50 1011.75 1012.04 1012.48 1012.86 1013.08
1013.25 1012.97 1012.25 1010.96 1010.07 1009.79 1008.78 1007.85 1006.55 1006.39 1006.43 1006.10 1005.63 1005.27 1004.36 1003.74 1003.00 1002.83 1002.53 1002.31 1001.94 1001.84 1001.69 1002.13 1002.45 1002.97 1003.69 1004.40 1005.20 1006.27 1006.94 1007.34 1007.62 1007.75 1008.06 1007.97 1008.21 1008.45 1009.15 1009.56 1009.88 1010.48 1010.89 1011.14 1011.37 1011.92 1012.73 1013.14 1013.07
1012.55 1012.33 1011.49 1009.97 1009.69 1009.41 1008.78 1007.06 1005.99 1006.25 1006.01 1005.34 1004.85 1004.35 1003.93 1003.46 1002.65 1002.30 1002.23 1002.07 1002.34 1001.51 1001.48 1001.75 1002.11 1002.32 1002.74 1003.35 1003.88 1004.74 1006.11 1007.22 1006.99 1007.40 1007.54 1007.69 1007.83 1008.04 1008.46 1009.01 1009.62 1010.10 1010.65 1010.93 1011.39 1011.78 1012.48 1013.09 1013.26
1011.98 1011.78 1011.00 1010.46 1009.53 1009.07 1008.89 1006.59 1006.30 1005.37 1005.13 1004.50 1004.01 1003.67 1003.34 1003.09 1002.56 1001.80 1001.56 1001.40 1001.65 1001.42 1001.09 1001.35 1001.58 1001.87 1002.13 1002.54 1003.47 1004.21 1005.43 1006.60 1007.02 1006.68 1006.65 1007.01 1007.19 1007.62 1008.12 1008.45 1008.99 1009.87 1010.26 1010.76 1011.22 1011.43 1011.83 1013.16 1013.64
1011.55 1011.20 1010.75 1010.55 1010.39 1009.46 1009.44 1007.60 1004.17 1004.93 1004.64 1004.44 1003.81 1003.29 1002.81 1002.54 1002.26 1001.50 1000.97 1001.17 1001.01 1000.98 1000.55 1000.56 1000.93 1001.15 1001.42 1002.09 1002.73 1003.27 1003.41 1005.30 1005.07 1005.24 1005.33 1006.04 1006.59 1007.38 1007.92 1008.30 1008.54 1009.49 1010.04 1010.40 1010.92 1011.16 1011.65 1012.14 1013.58
1011.32 1011.08 1010.96 1010.75 1010.51 1010.08 1010.10 1009.95 1002.10 1004.86 1004.58 1003.91 1003.21 1002.82 1002.61 1002.24 1002.06 1001.29 1000.94 1000.70 1000.32 1000.31 1000.39 1000.47 1000.76 1000.91 1000.87 1001.08 1001.76 1002.34 1002.74 1003.01 1003.95 1004.32 1004.97 1005.43 1004.99 1006.44 1007.56 1008.04 1008.37 1009.16 1009.74 1010.24 1010.69 1011.21 1011.70 1012.11 1013.19
1011.45 1011.37 1011.02 1010.99 1010.99 1010.37 1009.46 1009.29 1002.52 1005.03 1004.30 1003.54 1002.89 1002.65 1002.28 1001.94 1001.47 1001.15 1000.84 1000.10 1000.27 1000.44 1000.28 1000.12 999.98 1000.49 1000.82 1001.11 1001.14 1001.79 1001.94 1002.40 1003.04 1003.41 1004.19 1005.20 1005.24 1006.01 1007.40 1007.81 1008.55 1009.11 1009.72 1010.36 1010.78 1011.31 1011.80 1012.49 1013.08
1011.62 1012.00 1012.21 1011.80 1011.74 1009.95 1008.60 1008.18 1004.55 1004.16 1003.73 1003.07 1002.65 1002.36 1002.31 1002.22 1001.96 1001.33 1000.85 1000.65 999.90 1000.46 1000.84 1000.58 1000.02 999.80 999.95 1000.48 1000.78 1001.34 1001.71 1002.00 1002.07 1002.42 1003.43 1004.10 1004.86 1005.76 1006.57 1007.48 1008.47 1009.31 1009.85 1010.50 1011.01 1011.63 1012.28 1012.92 1013.60
1012.30 1012.81 1013.44 1012.62 1011.81 1010.58 1009.23 1006.67 1004.19 1003.38 1002.73 1002.01 1001.95 1002.09 1002.31 1002.46 1002.11 1001.53 1001.05 1000.71 1000.20 1000.10 1000.20 1000.36 1000.03 999.60 999.34 999.44 1000.04 1000.12 1001.33 1001.86 1001.86 1002.23 1002.78 1003.40 1003.83 1005.06 1006.17 1007.18 1007.93 1008.94 1009.76 1010.67 1011.35 1012.08 1012.81 1013.45 1014.16
1012.27 1012.72 1012.57 1012.71 1011.71 1010.54 1008.36 1005.54 1003.97 1002.90 1002.26 1001.92 1002.10 1002.42 1002.63 1002.41 1002.01 1001.56 1000.90 1000.80 1000.31 999.56 999.58 999.46 999.68 999.08 998.71 998.65 998.72 999.18 1000.01 1001.29 1001.43 1001.98 1002.45 1003.12 1003.70 1004.65 1005.64 1006.45 1008.16 1008.64 1009.71 1011.00 1011.84 1012.66 1013.35 1014.04 1014.98
1011.83 1012.27 1012.71 1012.76 1011.73 1009.51 1007.00 1005.57 1004.05 1002.97 1002.36 1002.36 1002.76 1003.01 1002.70 1002.22 1001.85 1001.25 1001.00 1000.62 1000.24 999.84 998.91 998.50 998.12 998.01 997.60 997.57 997.96 998.27 999.31 999.98 1000.59 1001.57 1002.56 1003.11 1003.91 1004.49 1005.67 1006.46 1007.69 1008.36 1010.00 1011.18 1012.30 1013.30 1013.86 1014.67 1015.63
1011.70 1012.07 1012.52 1012.37 1011.81 1009.93 1007.57 1005.31 1004.38 1003.61 1003.30 1003.28 1003.29 1003.21 1003.04 1002.64 1002.28 1001.75 1001.22 1000.57 999.97 999.50 998.89 998.22 997.53 997.21 996.92 996.81 996.94 997.43 998.41 998.94 999.95 1000.91 1001.77 1002.97 1003.97 1004.50 1005.63 1006.70 1007.43 1008.09 1009.50 1011.37 1012.84 1014.06 1014.39 1015.33 1016.35
1011.04 1011.21 1012.19 1011.92 1011.05 1010.12 1008.59 1004.40 1003.72 1003.45 1003.79 1004.11 1004.01 1003.95 1003.39 1002.61 1002.12 1001.61 1001.07 1000.47 1000.04 999.47 998.62 997.80 996.68 996.39 995.87 995.53 995.95 996.70 997.58 998.24 999.45 1000.27 1000.97 1002.32 1003.43 1004.64 1005.51 1006.80 1007.92 1008.53 1009.93 1011.07 1012.80 1014.43 1014.64 1016.31 1017.10
Thickness
5801 5808 5812 5805 5774 5765 5763 5789 5807 5811 5813 5831 5833 5824 5828 5839 5825 5815 5882 5889 5886 5877 5867 5860 5857 5855 5849 5848 5845 5841 5840 5836 5833 5829 5826 5825 5823 5821 5819 5817 5814 5812 5810 5808 5805 5803 5800 5797 5793
5798 5804 5801 5782 5756 5751 5765 5799 5800 5812 5822 5832 5844 5842 5836 5842 5864 5866 5871 5881 5885 5882 5869 5861 5858 5854 5849 5846 5845 5842 5840 5836 5834 5829 5826 5827 5824 5821 5819 5817 5814 5811 5809 5807 5805 5802 5798 5795 5792
5796 5798 5777 5762 5745 5754 5769 5800 5806 5816 5826 5818 5823 5846 5843 5846 5871 5873 5886 5884 5881 5875 5870 5864 5858 5853 5849 5847 5843 5842 5840 5836 5833 5829 5826 5827 5825 5822 5819 5816 5813 5810 5808 5805 5803 5800 5797 5793 5790
5785 5780 5766 5745 5752 5770 5790 5802 5802 5805 5825 5817 5821 5817 5854 5875 5871 5884 5889 5887 5879 5873 5870 5864 5857 5852 5847 5846 5842 5840 5838 5836 5833 5828 5825 5825 5824 5821 5818 5815 5812 5810 5808 5804 5801 5799 5795 5792 5788
5776 5759 5738 5737 5749 5771 5787 5794 5797 5794 5802 5807 5808 5807 5833 5865 5875 5878 5877 5876 5876 5871 5869 5862 5858 5852 5846 5844 5842 5839 5836 5833 5831 5827 5823 5823 5822 5819 5817 5813 5811 5808 5806 5804 5800 5796 5793 5790 5787
5751 5745 5724 5723 5747 5765 5778 5788 5791 5792 5793 5799 5801 5803 5827 5856 5862 5862 5872 5871 5869 5866 5863 5858 5853 5849 5845 5842 5841 5836 5834 5831 5828 5824 5820 5819 5819 5816 5814 5812 5809 5806 5803 5801 5798 5795 5791 5787 5784
5739 5724 5720 5729 5739 5752 5773 5786 5783 5784 5785 5788 5799 5792 5808 5829 5840 5846 5847 5852 5856 5859 5856 5853 5851 5843 5838 5838 5837 5835 5831 5829 5826 5822 5818 5818 5816 5813 5811 5809 5807 5804 5801 5799 5797 5795 5791 5788 5783
5734 5723 5722 5728 5731 5740 5771 5770 5780 5782 5782 5802 5801 5774 5782 5814 5834 5829 5833 5833 5836 5840 5845 5848 5846 5845 5838 5835 5834 5833 5830 5827 5822 5818 5816 5815 5814 5811 5809 5807 5805 5802 5799 5796 5795 5793 5791 5786 5781
5736 5706 5699 5717 5728 5739 5756 5754 5773 5783 5778 5784 5793 5786 5796 5810 5819 5816 5811 5813 5822 5829 5834 5838 5841 5840 5835 5828 5828 5828 5827 5824 5820 5815 5812 5810 5809 5807 5806 5804 5802 5800 5797 5794 5793 5792 5789 5784 5779
5712 5690 5700 5719 5729 5730 5741 5744 5757 5758 5760 5768 5779 5784 5789 5798 5797 5793 5795 5795 5798 5814 5822 5829 5832 5833 5829 5823 5819 5820 5820 5820 5816 5813 5810 5808 5806 5804 5804 5802 5800 5798 5796 5793 5790 5790 5789 5783 5778
5709 5695 5708 5718 5722 5723 5728 5739 5751 5751 5748 5760 5764 5778 5773 5779 5783 5786 5788 5792 5792 5800 5799 5810 5819 5830 5828 5823 5818 5813 5814 5813 5812 5810 5807 5804 5802 5800 5801 5801 5798 5796 5794 5791 5788 5786 5784 5781 5777
5697 5705 5705 5706 5713 5710 5713 5730 5734 5742 5745 5758 5764 5772 5771 5765 5766 5773 5780 5789 5793 5794 5792 5793 5796 5811 5822 5826 5820 5816 5811 5809 5808 5806 5804 5801 5799 5798 5799 5799 5798 5795 5791 5788 5787 5784 5780 5778 5775
5688 5693 5693 5697 5695 5697 5704 5705 5716 5727 5740 5746 5752 5759 5764 5763 5760 5766 5773 5785 5792 5792 5795 5796 5796 5795 5807 5817 5820 5817 5815 5809 5807 5802 5801 5800 5797 5796 5796 5796 5794 5792 5788 5784 5783 5781 5777 5774 5771
5679 5677 5679 5685 5685 5684 5688 5696 5699 5717 5728 5730 5734 5737 5749 5755 5760 5752 5759 5766 5777 5787 5788 5795 5795 5793 5794 5799 5811 5816 5815 5810 5804 5802 5799 5798 5795 5794 5794 5792 5791 5788 5786 5782 5779 5775 5772 5769 5766
5666 5657 5664 5674 5676 5673 5679 5679 5682 5698 5705 5710 5719 5728 5730 5741 5744 5754 5746 5753 5762 5773 5782 5784 5792 5793 5790 5786 5788 5800 5801 5801 5802 5801 5796 5795 5792 5790 5791 5789 5788 5787 5783 5778 5775 5770 5767 5764 5761
5636 5636 5625 5651 5656 5662 5657 5653 5677 5685 5683 5690 5705 5714 5722 5728 5735 5741 5755 5744 5752 5760 5766 5775 5780 5788 5787 5782 5782 5784 5789 5791 5795 5799 5797 5794 5791 5789 5787 5787 5786 5786 5782 5777 5772 5767 5762 5759 5754
5603 5595 5606 5625 5641 5638 5636 5643 5660 5672 5668 5670 5679 5692 5703 5715 5727 5738 5743 5746 5744 5748 5754 5761 5767 5771 5781 5781 5776 5776 5776 5781 5787 5789 5791 5794 5790 5787 5786 5785 5785 5782 5778 5774 5770 5765 5761 5754 5747
5584 5578 5585 5600 5628 5619 5617 5626 5642 5652 5654 5653 5657 5666 5681 5696 5708 5722 5732 5743 5737 5744 5750 5752 5757 5759 5762 5773 5771 5766 5768 5772 5775 5780 5785 5786 5787 5785 5781 5782 5782 5779 5773 5769 5765 5760 5756 5750 5747
5581 5579 5578 5599 5612 5596 5608 5609 5635 5640 5632 5634 5639 5646 5660 5679 5700 5703 5715 5727 5732 5733 5740 5740 5742 5747 5750 5755 5763 5760 5759 5765 5765 5770 5771 5774 5776 5779 5777 5778 5779 5774 5770 5766 5763 5756 5748 5743 5743
5580 5573 5582 5602 5602 5592 5599 5613 5637 5629 5625 5631 5636 5643 5646 5657 5677 5690 5695 5705 5712 5724 5726 5729 5732 5737 5743 5748 5758 5761 5755 5752 5759 5761 5764 5767 5771 5775 5777 5775 5775 5772 5766 5762 5756 5752 5746 5738 5735
5581 5574 5583 5583 5597 5598 5588 5608 5614 5627 5618 5625 5628 5628 5633 5640 5653 5675 5686 5691 5695 5707 5718 5719 5722 5726 5733 5742 5743 5748 5746 5743 5744 5752 5763 5766 5769 5770 5771 5773 5774 5767 5764 5758 5753 5750 5745 5731 5725
5571 5585 5585 5582 5576 5574 5579 5575 5631 5615 5609 5610 5616 5620 5623 5627 5634 5651 5674 5676 5684 5693 5706 5714 5716 5719 5725 5730 5734 5739 5748 5738 5752 5755 5764 5761 5761 5760 5763 5765 5770 5764 5759 5755 5751 5747 5740 5735 5721
5572 5578 5575 5575 5570 5565 5562 5546 5637 5607 5603 5608 5614 5613 5614 5618 5620 5633 5644 5661 5674 5681 5686 5694 5697 5702 5713 5720 5727 5734 5743 5750 5748 5751 5749 5753 5767 5762 5758 5760 5762 5758 5753 5750 5746 5740 5735 5731 5720
5573 5566 5567 5561 5554 5544 5567 5554 5620 5592 5595 5604 5610 5612 5616 5618 5622 5626 5634 5647 5660 5661 5669 5677 5684 5687 5692 5701 5715 5722 5734 5741 5743 5750 5746 5749 5754 5756 5750 5752 5749 5748 5745 5743 5739 5732 5728 5721 5715
5563 5547 5522 5537 5531 5553 5569 5548 5594 5604 5604 5606 5609 5608 5610 5611 5611 5617 5622 5630 5649 5647 5652 5657 5668 5675 5682 5690 5699 5708 5718 5730 5742 5751 5746 5748 5748 5746 5746 5744 5736 5734 5736 5733 5729 5723 5718 5712 5706
5550 5542 5509 5519 5531 5538 5555 5552 5584 5596 5603 5607 5604 5604 5604 5601 5603 5609 5613 5619 5628 5639 5644 5644 5652 5664 5672 5683 5691 5703 5707 5712 5733 5742 5745 5746 5750 5745 5740 5735 5731 5728 5727 5723 5718 5713 5707 5702 5695
5544 5531 5539 5524 5536 5523 5545 5568 5581 5591 5595 5597 5593 5594 5591 5593 5597 5600 5607 5610 5616 5628 5635 5641 5643 5657 5667 5672 5688 5696 5703 5703 5721 5733 5739 5738 5741 5744 5737 5731 5720 5722 5718 5710 5705 5700 5696 5691 5682
5543 5538 5506 5503 5518 5527 5542 5549 5560 5573 5579 5582 5576 5574 5579 5585 5590 5596 5598 5603 5607 5613 5625 5632 5641 5651 5665 5668 5678 5689 5693 5704 5719 5723 5724 5726 5728 5733 5729 5725 5715 5717 5705 5696 5691 5685 5685 5679 5671
5540 5528 5521 5517 5516 5522 5526 5536 5551 5554 5558 5557 5561 5566 5568 5572 5576 5579 5584 5592 5598 5603 5611 5623 5633 5641 5653 5661 5670 5681 5687 5701 5711 5715 5717 5716 5718 5721 5718 5715 5709 5705 5697 5684 5676 5670 5672 5666 5658
5543 5535 5519 5508 5519 5515 5499 5529 5557 5557 5546 5539 5538 5543 5553 5563 5568 5567 5571 5576 5581 5592 5602 5612 5629 5636 5650 5660 5666 5675 5680 5693 5701 5707 5716 5715 5716 5711 5709 5706 5692 5693 5683 5679 5668 5659 5661 5650 5643